Weather History for Robinson, IL

Change the Weather History Date:

Thursday, September 19, 2013

  Actual Average (KLWV) Record (KLWV)
Temperature  
Mean Temperature 81 °F 68 °F  
Max Temperature 92 °F 81 °F 93 °F (1997)
Min Temperature 70 °F 56 °F 40 °F (2012)
Degree Days  
Heating Degree Days 0 1  
Month to date heating degree days 6  
Since 1 July heating degree days 7  
Cooling Degree Days 16 5  
Month to date cooling degree days 133  
Year to date cooling degree days 1316  
Growing Degree Days 31 (Base 50)    
Moisture  
Dew Point 71 °F    
Average Humidity 76    
Maximum Humidity 96    
Minimum Humidity 49    
Precipitation  
Precipitation 0.00 in 0.09 in 0.70 in (2005)
Month to date precipitation 2.00  
Year to date precipitation 31.35  
Sea Level Pressure  
Sea Level Pressure 30.01 in    
Wind  
Wind Speed 6 mph (South)    
Max Wind Speed 13 mph    
Max Gust Speed 18 mph    
Visibility 8 miles    
Events Thunderstorm    
T = Trace of Precipitation, MM = Missing Value Source: NWS Daily Summary

Daily Weather History Graph

Daily Weather History Graph

Search for Another Location

Airport:

Trip Planner

Search our weather history database for the weather conditions in past years. The results will help you decide how hot, cold, wet, or windy it might be!

Date:

Astronomy

Sep. 19, 2013 Rise Set
Actual Time 6:35 AM CDT 6:52 PM CDT
Civil Twilight 6:09 AM CDT 7:18 PM CDT
Nautical Twilight 5:37 AM CDT 7:49 PM CDT
Astronomical Twilight 5:05 AM CDT 8:21 PM CDT
Moon 6:50 PM CDT (9/19) 6:44 AM CDT (9/19)
Length of Visible Light 13h 09m
Length of Day
12h 16m
Full, 100% of the Moon is Illuminated
Sep 19
Full
Sep 26
Last Quarter
Oct 4
New
Oct 11
First Quarter
Oct 18
Full

Hourly Weather History & Observations

Time (CDT) Temp. Heat Index Dew Point Humidity Pressure Visibility Wind Dir Wind Speed Gust Speed Precip Events Conditions
12:15 AM 72.5 °F - 70.2 °F 92% 30.05 in 5.0 mi SSW 5.8 mph - N/A   Clear
12:35 AM 72.1 °F - 70.2 °F 93% 30.04 in 5.0 mi SSW 6.9 mph - N/A   Clear
12:55 AM 72.0 °F - 70.0 °F 93% 30.05 in 5.0 mi SSW 5.8 mph - N/A   Clear
1:15 AM 71.8 °F - 70.0 °F 94% 30.05 in 5.0 mi South 6.9 mph - N/A   Clear
1:35 AM 71.8 °F - 70.0 °F 94% 30.05 in 5.0 mi SSW 6.9 mph - N/A   Clear
1:55 AM 71.6 °F - 69.8 °F 94% 30.05 in 5.0 mi South 5.8 mph - N/A   Clear
2:15 AM 71.8 °F - 69.8 °F 93% 30.04 in 5.0 mi SSW 5.8 mph - N/A   Clear
2:35 AM 71.6 °F - 69.8 °F 94% 30.04 in 5.0 mi South 5.8 mph - N/A   Clear
2:55 AM 71.6 °F - 69.8 °F 94% 30.04 in 5.0 mi South 4.6 mph - N/A   Clear
3:15 AM 71.6 °F - 70.0 °F 95% 30.04 in 5.0 mi South 3.5 mph - N/A   Clear
3:35 AM 71.6 °F - 69.8 °F 94% 30.04 in 4.0 mi South 3.5 mph - N/A   Scattered Clouds
3:55 AM 71.1 °F - 69.6 °F 95% 30.04 in 4.0 mi South 3.5 mph - N/A   Scattered Clouds
4:15 AM 71.1 °F - 69.8 °F 96% 30.03 in 4.0 mi South 3.5 mph - N/A   Clear
4:35 AM 71.4 °F - 70.0 °F 95% 30.04 in 5.0 mi Calm Calm - N/A   Scattered Clouds
4:55 AM 71.4 °F - 69.8 °F 95% 30.04 in 5.0 mi Calm Calm - N/A   Mostly Cloudy
5:15 AM 70.7 °F - 69.3 °F 95% 30.04 in 4.0 mi Calm Calm - N/A   Scattered Clouds
5:35 AM 70.9 °F - 69.4 °F 95% 30.04 in 4.0 mi South 4.6 mph - N/A   Scattered Clouds
5:55 AM 71.1 °F - 69.8 °F 96% 30.05 in 5.0 mi Calm Calm - N/A   Scattered Clouds
6:15 AM 70.7 °F - 68.9 °F 94% 30.05 in 4.0 mi SE 3.5 mph - N/A   Scattered Clouds
6:35 AM 70.7 °F - 69.4 °F 96% 30.05 in 4.0 mi SSE 3.5 mph - N/A   Scattered Clouds
6:55 AM 70.7 °F - 69.4 °F 96% 30.06 in 3.0 mi South 4.6 mph - N/A   Clear
7:15 AM 71.1 °F - 69.8 °F 96% 30.06 in 3.0 mi South 3.5 mph - N/A   Clear
7:35 AM 71.2 °F - 69.8 °F 95% 30.06 in 3.0 mi Calm Calm - N/A   Scattered Clouds
7:55 AM 72.7 °F - 71.1 °F 95% 30.05 in 4.0 mi South 3.5 mph - N/A   Clear
8:15 AM 75.6 °F - 71.4 °F 87% 30.06 in 7.0 mi SW 3.5 mph - N/A   Clear
8:35 AM 78.6 °F - 71.6 °F 79% 30.05 in 7.0 mi SSW 8.1 mph - N/A   Scattered Clouds
8:55 AM 78.4 °F - 71.1 °F 78% 30.06 in 10.0 mi SW 6.9 mph - N/A   Scattered Clouds
9:15 AM 78.3 °F - 71.2 °F 79% 30.06 in 10.0 mi SSW 5.8 mph - N/A   Scattered Clouds
9:35 AM 78.8 °F - 71.1 °F 77% 30.06 in 10.0 mi SSW 5.8 mph - N/A   Clear
9:55 AM 80.4 °F 84.2 °F 71.6 °F 74% 30.06 in 10.0 mi SSW 6.9 mph - N/A   Clear
10:15 AM 80.2 °F 83.9 °F 71.4 °F 74% 30.06 in 10.0 mi SSW 9.2 mph - N/A   Clear
10:35 AM 82.8 °F 87.7 °F 71.8 °F 69% 30.06 in 10.0 mi South 4.6 mph - N/A   Clear
10:55 AM 83.5 °F 88.5 °F 71.6 °F 67% 30.06 in 10.0 mi SSW 3.5 mph - N/A   Scattered Clouds
11:15 AM 86.9 °F 92.9 °F 71.6 °F 60% 30.06 in 10.0 mi SSW 9.2 mph - N/A Thunderstorm Mostly Cloudy
11:35 AM 86.4 °F 92.2 °F 71.6 °F 61% 30.06 in 10.0 mi South 6.9 mph - N/A Thunderstorm Scattered Clouds
11:55 AM 87.4 °F 93.5 °F 71.4 °F 59% 30.05 in 10.0 mi South 4.6 mph - N/A   Scattered Clouds
12:15 PM 88.9 °F 95.1 °F 71.4 °F 56% 30.05 in 10.0 mi South 10.4 mph 16.1 mph N/A   Scattered Clouds
12:35 PM 88.7 °F 93.5 °F 69.8 °F 53% 30.04 in 10.0 mi WSW 8.1 mph - N/A   Scattered Clouds
12:55 PM 89.8 °F 95.1 °F 70.2 °F 52% 30.03 in 10.0 mi SSW 9.2 mph 17.3 mph N/A   Mostly Cloudy
1:15 PM 89.4 °F 95.8 °F 71.1 °F 55% 30.02 in 10.0 mi South 9.2 mph 18.4 mph N/A   Scattered Clouds
1:35 PM 89.8 °F 97.0 °F 72.0 °F 56% 30.02 in 10.0 mi SSW 8.1 mph - N/A   Scattered Clouds
1:55 PM 89.1 °F 94.6 °F 70.3 °F 54% 30.01 in 10.0 mi SSE 12.7 mph 18.4 mph N/A   Clear
2:15 PM 88.5 °F 94.0 °F 70.3 °F 55% 30.00 in 10.0 mi SSW 10.4 mph 16.1 mph N/A   Clear
2:35 PM 90.1 °F 96.3 °F 70.7 °F 53% 30.00 in 10.0 mi South 11.5 mph - N/A   Clear
2:55 PM 89.6 °F 95.2 °F 70.3 °F 53% 29.99 in 10.0 mi South 9.2 mph - N/A   Scattered Clouds
3:15 PM 91.2 °F 97.5 °F 70.7 °F 51% 29.98 in 10.0 mi SSW 9.2 mph - N/A   Scattered Clouds
3:35 PM 92.1 °F 98.3 °F 70.7 °F 49% 29.97 in 10.0 mi SW 9.2 mph - N/A   Clear
3:55 PM 90.9 °F 97.3 °F 71.2 °F 52% 29.97 in 10.0 mi South 9.2 mph - N/A   Scattered Clouds
4:15 PM 88.5 °F 94.9 °F 71.6 °F 57% 29.96 in 10.0 mi SSE 9.2 mph - N/A   Scattered Clouds
4:35 PM 88.2 °F 95.5 °F 72.5 °F 60% 29.95 in 10.0 mi SSE 6.9 mph - N/A   Scattered Clouds
4:55 PM 89.8 °F 97.5 °F 72.9 °F 57% 29.94 in 10.0 mi SSE 8.1 mph - N/A   Scattered Clouds
5:15 PM 89.8 °F 96.0 °F 70.9 °F 54% 29.94 in 10.0 mi South 8.1 mph - N/A   Scattered Clouds
5:35 PM 88.7 °F 93.9 °F 70.3 °F 54% 29.93 in 10.0 mi South 8.1 mph - N/A   Clear
5:55 PM 87.8 °F 93.0 °F 70.5 °F 56% 29.93 in 10.0 mi South 8.1 mph - N/A   Clear
6:15 PM 86.2 °F 91.4 °F 70.7 °F 60% 29.92 in 10.0 mi South 6.9 mph - N/A   Clear
6:35 PM 84.2 °F 89.3 °F 71.2 °F 65% 29.92 in 10.0 mi South 9.2 mph - N/A   Clear
6:55 PM 83.5 °F 88.8 °F 72.0 °F 68% 29.93 in 10.0 mi South 9.2 mph - N/A   Scattered Clouds
7:15 PM 82.8 °F 87.9 °F 72.0 °F 70% 29.93 in 10.0 mi South 8.1 mph - N/A   Scattered Clouds
7:35 PM 81.7 °F 86.3 °F 71.8 °F 72% 29.94 in 10.0 mi South 9.2 mph - N/A   Clear
7:55 PM 81.3 °F 85.6 °F 71.6 °F 72% 29.95 in 10.0 mi South 9.2 mph - N/A   Clear
8:15 PM 80.8 °F 84.7 °F 71.6 °F 73% 29.95 in 10.0 mi South 9.2 mph - N/A   Clear
8:35 PM 80.2 °F 84.0 °F 71.6 °F 75% 29.95 in 10.0 mi South 9.2 mph - N/A   Clear
8:55 PM 79.9 °F - 71.8 °F 76% 29.95 in 10.0 mi SSW 8.1 mph - N/A   Clear
9:15 PM 79.9 °F - 72.0 °F 77% 29.95 in 10.0 mi South 8.1 mph - N/A   Clear
9:35 PM 79.7 °F - 72.0 °F 77% 29.96 in 10.0 mi South 8.1 mph - N/A   Clear
9:55 PM 79.7 °F - 72.1 °F 78% 29.96 in 10.0 mi SSW 8.1 mph - N/A   Clear
10:15 PM 79.9 °F - 72.1 °F 77% 29.96 in 10.0 mi SSW 10.4 mph - N/A   Clear
10:35 PM 79.5 °F - 72.0 °F 78% 29.96 in 10.0 mi SSW 11.5 mph 17.3 mph N/A   Clear
10:55 PM 79.0 °F - 72.0 °F 79% 29.97 in 10.0 mi SSW 10.4 mph - N/A   Clear
11:15 PM 79.0 °F - 72.0 °F 79% 29.97 in 10.0 mi SSW 9.2 mph - N/A   Clear
11:35 PM 78.8 °F - 71.8 °F 79% 29.96 in 10.0 mi SSW 10.4 mph - N/A   Clear
11:55 PM 79.0 °F - 71.6 °F 78% 29.96 in 10.0 mi SSW 9.2 mph - N/A   Clear